Regional Weather Roundup
Issued by NWS

Home | Current Version | Previous Version | Graphics & Text | Print | Product List | Glossary On
Versions: 1 2 3 4 5 6 7 8 9 10 11 12 13 14 15 16 17 18 19 20 21 22 23 24 25 26 27 28 29 30 31 32 33 34 35 36 37 38 39 40 41 42 43 44 45 46 47 48 49 50
191
ASUS43 KMPX 270510
RWRMN
WEATHER ROUNDUP FOR MINNESOTA
NATIONAL WEATHER SERVICE TWIN CITIES/CHANHASSEN MN
1200 AM CDT SUN MAY 27 2018


NOTE: "FAIR" INDICATES FEW OR NO CLOUDS BELOW 12,000 FEET WITH NO
SIGNIFICANT WEATHER AND/OR OBSTRUCTIONS TO VISIBILITY. N/A MEANS
CURRENT SKY AND/OR WEATHER CONDITIONS ARE NOT AVAILABLE.

MNZ060>063-068>070-270600-
   Twin Cities Metro

CITY           SKY/WX    TMP DP  RH WIND       PRES   REMARKS
TWIN CITIES    FAIR      79  60  52 CALM      29.75R
ST PAUL        FAIR      72  59  63 CALM      29.75R
CRYSTAL        FAIR      71  58  63 CALM      29.74R
BLAINE         FAIR      70  61  73 CALM      29.75S
LAKEVILLE      FAIR      66  64  94 CALM      29.76R
EDEN PRAIRIE   FAIR      73  62  68 CALM      29.75R
SOUTH ST PAUL  FAIR      73  61  65 CALM      29.75R
LAKE ELMO      FAIR      68  61  77 CALM      29.77R
$$
MNZ001>005-007-008-013>017-022>024-027-028-270600-
   Northwest Minnesota

CITY           SKY/WX    TMP DP  RH WIND       PRES   REMARKS
BEMIDJI        FAIR      60  56  87 CALM      29.77S
HALLOCK        FAIR      68  57  68 NE5       29.74R
ROSEAU         FAIR      64  59  82 CALM      29.75S
WARROAD        FAIR      61  57  88 CALM      29.76S
THIEF RVR FALL FAIR      69  59  70 E7        29.76R
CROOKSTON      FAIR      68  57  68 E3        29.74R
FOSSTON        FAIR      63  45  51 CALM      29.77R
DETROIT LAKES  FAIR      68  52  56 CALM      29.78R
MOORHEAD       FAIR      70  46  43 CALM      29.74R
PARK RAPIDS    FAIR      63  54  72 CALM      29.77R
MAHNOMEN       FAIR      71  55  57 E5        29.76R
$$
MNZ006-009>011-018-025>026-270600-
   North Central Minnesota

CITY           SKY/WX    TMP DP  RH WIND       PRES   REMARKS
BAUDETTE         N/A    N/A N/A N/A MISG      29.75R
FLAG ISLAND    FAIR      66  63  88 NW3       29.75R
INTL FALLS     FAIR      57  56  96 CALM      29.75R
WASKISH        FAIR      59  57  94 CALM      29.76R
BIG FORK       FAIR      57  57 100 CALM      29.77R
LONGVILLE      FAIR      59  57  94 CALM      29.77R
GRAND RAPIDS   FAIR      61  59  93 CALM      29.79R
ORR            FAIR      59  55  88 CALM      29.74R
COOK           FAIR      61  59  94 CALM      29.77R
WALKER         FAIR      60  56  87 SW3       29.78R
$$
MNZ012-019>021-037-270600-
   Northeast Minnesota

CITY           SKY/WX    TMP DP  RH WIND       PRES   REMARKS
DULUTH         FAIR      58  54  86 E3        29.77S
ELY            FAIR      63  57  82 S3        29.77R
HIBBING        FAIR      56  54  93 CALM      29.76R
EVELETH        FAIR      59  55  88 SE6       29.78R
DULUTH HARBOR  FOG       48  48 100 CALM      29.79R VSB 1/4
TWO HARBORS    FAIR      54  50  87 CALM      29.75S
SILVER BAY     FAIR      54  54 100 CALM      29.76S
GRAND MARAIS     N/A     45  45 100 CALM      29.76R
G MARAIS ARPRT FAIR      54  50  87 CALM      29.79S FOG
$$
MNZ029>031-032-039>041-046>048-054>057-064-270600-
   West Central Minnesota

CITY           SKY/WX    TMP DP  RH WIND       PRES   REMARKS
FERGUS FALLS   FAIR      72  54  53 E5        29.71R
MORRIS         CLEAR     75  46  35 CALM      29.75R
ALEXANDRIA     FAIR      69  55  60 CALM      29.78S
ELBOW LAKE     FAIR      73  59  61 SE5       29.76R
WADENA         FAIR      63  55  77 CALM      29.77R
GLENWOOD       FAIR      73  57  56 S3        29.78S
APPLETON       CLEAR     70  57  64 CALM      29.74S
BENSON         CLEAR     66  55  68 CALM      29.77S
ORTONVILLE     CLEAR     75  54  46 SW6       29.75S
MADISON        CLEAR     73  52  46 CALM      29.75S
$$
MNZ033>034-036-042>043-049>051-058-059-270600-
   Central Minnesota

CITY           SKY/WX    TMP DP  RH WIND       PRES   REMARKS
ST CLOUD       FAIR      65  54  67 CALM      29.75R
SAUK CENTRE    FAIR      65  55  70 CALM      29.77S
PAYNESVILLE    FAIR      65  59  80 CALM      29.77F
AITKIN           N/A     55  54  94 CALM      29.76R FOG
PINE RIVER     FAIR      57  52  82 CALM      29.81R
BRAINERD       FAIR      63  56  78 CALM      29.77R
STAPLES        FAIR      64  54  68 CALM      29.77R
LONG PRAIRIE   FAIR      64  54  68 CALM      29.78S
LITTLE FALLS   FAIR      63  55  77 CALM      29.77R
LITCHFIELD     FAIR      70  59  68 CALM      29.78R
BUFFALO        FAIR      67  54  61 CALM      29.77R
MAPLE LAKE     FAIR      64  58  80 CALM      29.77R
HUTCHINSON     FAIR      70  62  77 CALM      29.78R
$$
MNZ037-044-045-052-053-270600-
   East Central Minnesota

CITY           SKY/WX    TMP DP  RH WIND       PRES   REMARKS
PRINCETON      FAIR      63  57  82 CALM      29.76R
MORA           FAIR      61  55  82 CALM      29.77S
CAMBRIDGE      FAIR      68  54  60 CALM      29.76R
RUSH CITY      FAIR      62  55  78 CALM      29.76R
MOOSE LAKE     FAIR      55  52  88 CALM      29.76S
HINCKLEY       FAIR      64  57  77 E3        29.77R
CLOQUET        FAIR      54  50  87 CALM      29.78S
MCGREGOR       FAIR      61  55  82 CALM      29.77S
$$
MNZ071>073-080-081-089-090-097-098-270600-
   Southwest Minnesota

CITY           SKY/WX    TMP DP  RH WIND       PRES   REMARKS
MONTEVIDEO     CLEAR     73  52  46 CALM      29.76S
CANBY          CLEAR     69  59  70 CALM      29.78S
MARSHALL       CLEAR     71  60  68 CALM      29.77S
REDWOOD FALLS  CLEAR     74  57  55 CALM      29.76R
OLIVIA         CLEAR     70  55  60 CALM      29.76S
PIPESTONE      CLEAR     75  54  46 SE5       29.81S
WINDOM         CLEAR     72  52  49 CALM      29.79S
WORTHINGTON    CLEAR     69  55  60 CALM      29.82R
JACKSON        CLEAR     70  59  68 CALM      29.81R
TRACY          CLEAR     75  54  48 SW3       29.78S
SLAYTON        CLEAR     70  43  37 CALM      29.82S
$$
MNZ065>067-074>077-082>085-091>093-270600-
   South Central Minnesota

CITY           SKY/WX    TMP DP  RH WIND       PRES   REMARKS
MANKATO        FAIR      73  56  54 SW5       29.77S
NEW ULM        CLEAR     72  50  46 W3        29.76S
ST JAMES       CLEAR     72  54  53 CALM      29.78S
FAIRMONT       CLEAR     73  56  54 CALM      29.79R
GLENCOE        FAIR      72  62  72 CALM      29.76R
FARIBAULT      FAIR      68  63  83 CALM      29.78R
OWATONNA       FAIR      66  61  82 CALM      29.78R
WASECA         FAIR      64  54  68 CALM      29.79R
ALBERT LEA     FAIR      70  61  73 CALM      29.78S
$$
MNZ078>079-086>088-094>096-270600-
   Southeast Minnesota

CITY           SKY/WX    TMP DP  RH WIND       PRES   REMARKS
ROCHESTER      FAIR      74  61  63 SE5       29.79R
RED WING       FAIR      66  57  72 CALM      29.75R
STANTON        FAIR      70  62  74 S5        29.75S
DODGE CENTER   FAIR      73  57  56 CALM      29.79S
WINONA         FAIR      70  64  83 CALM      29.76S
AUSTIN         FAIR      72  59  64 CALM      29.78S
PRESTON        FAIR      74  62  65 CALM      29.80S
$$
ABBREVIATIONS USED IN REMARKS
   TC - TEMPERATURES IN CELSIUS
  WCI - WIND CHILL INDEX
   HX - HEAT INDEX
  VSB - VISIBILITY
$$




USA.gov is the U.S. government's official web portal to all federal, state and local government web resources and services.